UPS2614 PANC-RKSI

Flight info

Callsign UPS2614
Flight time N/A
Altitude 30000
Route NODLE R220 NODAN R217 ASTER Y514 SDE Y512 GTC Y142 SAMON Y14 SUGNO Y16 SAPRA Y685 GUKDO GUKDO2E
Aircraft B763/H-SDE3FGHIM3RWXY/LB1

Departure

Time N/A
Airport Ted Stevens Anchorage International Airport (PANC)

Arrival

Time 2026-05-04 23:36
Airport Incheon International Airport (RKSI)
Time Latitude Longitude Altitude Speed Heading
2026-05-04 21:45 37.98313 139.34821 30101 ft 375 kts 261°
2026-05-04 21:46 37.97619 139.28261 30128 ft 375 kts 261°
2026-05-04 21:46 37.96919 139.21689 30130 ft 375 kts 261°
2026-05-04 21:47 37.96223 139.15181 30133 ft 377 kts 261°
2026-05-04 21:47 37.94831 139.08820 30145 ft 378 kts 249°
2026-05-04 21:48 37.92760 139.02728 30139 ft 378 kts 249°
2026-05-04 21:48 37.90660 138.96602 30133 ft 383 kts 249°
2026-05-04 21:49 37.88539 138.90466 30146 ft 378 kts 249°
2026-05-04 21:49 37.86440 138.84415 30183 ft 379 kts 249°
2026-05-04 21:50 37.84310 138.78291 30161 ft 383 kts 249°
2026-05-04 21:50 37.82165 138.72144 30155 ft 383 kts 249°
2026-05-04 21:51 37.80018 138.66005 30154 ft 381 kts 249°
2026-05-04 21:51 37.77876 138.59892 30142 ft 384 kts 250°
2026-05-04 21:52 37.75711 138.53722 30157 ft 385 kts 250°
2026-05-04 21:52 37.73540 138.47554 30147 ft 385 kts 250°
2026-05-04 21:53 37.71374 138.41408 30151 ft 384 kts 249°
2026-05-04 21:53 37.69202 138.35260 30161 ft 387 kts 250°
2026-05-04 21:54 37.66996 138.29024 30161 ft 387 kts 249°
2026-05-04 21:54 37.64806 138.22850 30167 ft 386 kts 249°
2026-05-04 21:55 37.62603 138.16646 30165 ft 390 kts 249°
2026-05-04 21:55 37.60409 138.10480 30147 ft 388 kts 249°
2026-05-04 21:56 37.58197 138.04283 30162 ft 389 kts 250°
2026-05-04 21:56 37.55965 137.98036 30153 ft 392 kts 249°
2026-05-04 21:57 37.53742 137.91830 30151 ft 390 kts 249°
2026-05-04 21:57 37.51502 137.85593 30151 ft 391 kts 250°
2026-05-04 21:58 37.49271 137.79391 30163 ft 388 kts 250°
2026-05-04 21:58 37.47044 137.73210 30157 ft 391 kts 250°
2026-05-04 21:59 37.44803 137.67004 30158 ft 391 kts 250°
2026-05-04 21:59 37.42552 137.60785 30157 ft 392 kts 249°
2026-05-04 22:00 37.40295 137.54562 30146 ft 392 kts 250°
2026-05-04 22:00 37.38037 137.48346 30152 ft 392 kts 250°
2026-05-04 22:01 37.35777 137.42142 30145 ft 392 kts 250°
2026-05-04 22:01 37.33500 137.35898 30153 ft 393 kts 250°
2026-05-04 22:02 37.31218 137.29660 30184 ft 393 kts 249°
2026-05-04 22:02 37.28944 137.23451 30150 ft 395 kts 249°
2026-05-04 22:03 37.26655 137.17219 30154 ft 393 kts 249°
2026-05-04 22:03 37.24363 137.10985 30173 ft 393 kts 250°
2026-05-04 22:04 37.22084 137.04802 30154 ft 394 kts 249°
2026-05-04 22:04 37.19776 136.98557 30170 ft 393 kts 249°
2026-05-04 22:05 37.17474 136.92333 30143 ft 397 kts 249°
2026-05-04 22:05 37.15151 136.86070 30137 ft 397 kts 249°
2026-05-04 22:06 37.12841 136.79857 30150 ft 396 kts 249°
2026-05-04 22:06 37.10506 136.73584 30155 ft 396 kts 249°
2026-05-04 22:07 37.08178 136.67343 30136 ft 396 kts 249°
2026-05-04 22:07 37.05870 136.61171 30176 ft 393 kts 250°
2026-05-04 22:08 37.03554 136.54985 30183 ft 394 kts 249°
2026-05-04 22:08 37.01211 136.48740 30154 ft 396 kts 249°
2026-05-04 22:09 36.98886 136.42558 30160 ft 393 kts 249°
2026-05-04 22:09 36.96555 136.36371 30185 ft 393 kts 249°
2026-05-04 22:10 36.94218 136.30179 30168 ft 397 kts 249°
2026-05-04 22:10 36.91867 136.23965 30177 ft 395 kts 248°
2026-05-04 22:11 36.89514 136.17755 30182 ft 396 kts 249°
2026-05-04 22:11 36.87149 136.11526 30160 ft 398 kts 248°
2026-05-04 22:12 36.84779 136.05299 30147 ft 398 kts 248°
2026-05-04 22:12 36.82440 135.99165 30163 ft 398 kts 248°
2026-05-04 22:13 36.80071 135.92964 30158 ft 399 kts 248°
2026-05-04 22:13 36.77682 135.86725 30162 ft 399 kts 248°
2026-05-04 22:14 36.75291 135.80492 30161 ft 399 kts 248°
2026-05-04 22:14 36.72889 135.74243 30157 ft 401 kts 248°
2026-05-04 22:15 36.70490 135.68012 30163 ft 400 kts 248°
2026-05-04 22:15 36.68080 135.61765 30142 ft 402 kts 248°
2026-05-04 22:16 36.65671 135.55534 30155 ft 402 kts 248°
2026-05-04 22:16 36.63235 135.49248 30163 ft 401 kts 248°
2026-05-04 22:17 36.60804 135.42981 30158 ft 404 kts 248°
2026-05-04 22:17 36.58359 135.36696 30160 ft 404 kts 248°
2026-05-04 22:18 36.55927 135.30456 30178 ft 402 kts 247°
2026-05-04 22:18 36.53471 135.24167 30164 ft 406 kts 248°
2026-05-04 22:19 36.51019 135.17899 30170 ft 405 kts 247°
2026-05-04 22:19 36.48543 135.11581 30158 ft 406 kts 247°
2026-05-04 22:20 36.46082 135.05318 30164 ft 407 kts 247°
2026-05-04 22:20 36.43593 134.98991 30163 ft 407 kts 247°
2026-05-04 22:21 36.41104 134.92679 30167 ft 407 kts 247°
2026-05-04 22:21 36.38626 134.86406 30172 ft 409 kts 247°
2026-05-04 22:22 36.36114 134.80064 30161 ft 407 kts 247°
2026-05-04 22:22 36.33628 134.73798 30153 ft 409 kts 247°
2026-05-04 22:23 36.31114 134.67473 30152 ft 407 kts 247°
2026-05-04 22:23 36.28635 134.61246 30156 ft 404 kts 247°
2026-05-04 22:24 36.26138 134.54988 30157 ft 407 kts 246°
2026-05-04 22:24 36.23481 134.48804 30159 ft 409 kts 242°
2026-05-04 22:25 36.20521 134.42790 30159 ft 407 kts 242°
2026-05-04 22:25 36.17587 134.36856 30150 ft 408 kts 242°
2026-05-04 22:26 36.14612 134.30862 30162 ft 407 kts 241°
2026-05-04 22:26 36.11662 134.24934 30152 ft 408 kts 241°
2026-05-04 22:27 36.08693 134.18982 30149 ft 407 kts 241°
2026-05-04 22:27 36.05724 134.13042 30154 ft 408 kts 241°
2026-05-04 22:28 36.02739 134.07077 30152 ft 410 kts 241°
2026-05-04 22:28 35.99744 134.01106 30151 ft 408 kts 241°
2026-05-04 22:29 35.97046 133.95006 30160 ft 404 kts 252°
2026-05-04 22:29 35.96100 133.88187 30168 ft 404 kts 267°
2026-05-04 22:30 35.95826 133.81273 30149 ft 406 kts 267°
2026-05-04 22:30 35.95584 133.74338 30127 ft 405 kts 267°
2026-05-04 22:31 35.95356 133.67419 30154 ft 404 kts 268°
2026-05-04 22:31 35.95130 133.60512 30142 ft 406 kts 267°
2026-05-04 22:32 35.94902 133.53557 30145 ft 405 kts 268°
2026-05-04 22:32 35.94673 133.46628 30152 ft 405 kts 268°
2026-05-04 22:33 35.94440 133.39722 30144 ft 406 kts 267°
2026-05-04 22:33 35.94202 133.32797 30162 ft 404 kts 267°
2026-05-04 22:34 35.93960 133.25839 30153 ft 408 kts 267°
2026-05-04 22:34 35.93713 133.18858 30161 ft 407 kts 267°
2026-05-04 22:35 35.93464 133.11925 30150 ft 408 kts 267°
2026-05-04 22:35 35.93208 133.04923 30151 ft 410 kts 267°
2026-05-04 22:36 35.92947 132.97897 30160 ft 408 kts 267°
2026-05-04 22:36 35.92684 132.90938 30151 ft 407 kts 267°
2026-05-04 22:37 35.92416 132.83963 30150 ft 409 kts 267°
2026-05-04 22:37 35.92146 132.77017 30150 ft 408 kts 267°
2026-05-04 22:38 35.91871 132.70023 30154 ft 409 kts 267°
2026-05-04 22:38 35.91589 132.63005 30125 ft 410 kts 267°
2026-05-04 22:39 35.91306 132.56029 30136 ft 411 kts 267°
2026-05-04 22:39 35.91016 132.48994 30134 ft 412 kts 267°
2026-05-04 22:40 35.90720 132.41925 30131 ft 411 kts 267°
2026-05-04 22:40 35.90425 132.34941 30122 ft 411 kts 266°
2026-05-04 22:41 35.90120 132.27867 30128 ft 413 kts 266°
2026-05-04 22:41 35.89814 132.20827 30126 ft 413 kts 266°
2026-05-04 22:42 35.89502 132.13773 30130 ft 413 kts 266°
2026-05-04 22:42 35.89188 132.06760 30130 ft 413 kts 266°
2026-05-04 22:43 35.88867 131.99675 30151 ft 413 kts 266°
2026-05-04 22:43 35.88545 131.92656 30137 ft 414 kts 266°
2026-05-04 22:44 35.88215 131.85562 30125 ft 416 kts 266°
2026-05-04 22:44 35.87881 131.78459 30129 ft 416 kts 266°
2026-05-04 22:45 35.87541 131.71339 30130 ft 417 kts 266°
2026-05-04 22:45 35.87025 131.60689 30126 ft 416 kts 266°
2026-05-04 22:46 35.86675 131.53569 30127 ft 415 kts 266°
2026-05-04 22:46 35.86322 131.46489 30142 ft 418 kts 266°
2026-05-04 22:47 35.85964 131.39374 30135 ft 417 kts 266°
2026-05-04 22:47 35.85603 131.32272 30132 ft 416 kts 266°
2026-05-04 22:48 35.85236 131.25163 30134 ft 419 kts 266°
2026-05-04 22:48 35.84862 131.18001 30125 ft 417 kts 266°
2026-05-04 22:49 35.84487 131.10881 30141 ft 418 kts 266°
2026-05-04 22:49 35.84106 131.03743 30153 ft 419 kts 266°
2026-05-04 22:50 35.83722 130.96614 30139 ft 419 kts 266°
2026-05-04 22:50 35.83332 130.89458 30141 ft 420 kts 266°
2026-05-04 22:51 35.82938 130.82310 30136 ft 419 kts 266°
2026-05-04 22:51 35.82539 130.75150 30120 ft 420 kts 266°
2026-05-04 22:52 35.82951 130.68007 30151 ft 420 kts 278°
2026-05-04 22:52 35.83850 130.60930 30133 ft 421 kts 278°
2026-05-04 22:53 35.84754 130.53801 30139 ft 421 kts 278°
2026-05-04 22:53 35.85652 130.46692 30121 ft 421 kts 278°
2026-05-04 22:54 35.86541 130.39616 30120 ft 421 kts 277°
2026-05-04 22:54 35.87434 130.32466 30134 ft 421 kts 277°
2026-05-04 22:55 35.88318 130.25357 30133 ft 423 kts 277°
2026-05-04 22:55 35.89204 130.18202 30130 ft 422 kts 277°
2026-05-04 22:56 35.90082 130.11076 30146 ft 422 kts 277°
2026-05-04 22:56 35.90962 130.03905 30136 ft 424 kts 277°
2026-05-04 22:57 35.91832 129.96767 30129 ft 423 kts 277°
2026-05-04 22:57 35.92703 129.89586 30123 ft 424 kts 277°
2026-05-04 22:58 35.93572 129.82385 30124 ft 423 kts 277°
2026-05-04 22:58 35.94427 129.75261 30130 ft 423 kts 277°
2026-05-04 22:59 35.95283 129.68094 30126 ft 423 kts 277°
2026-05-04 22:59 35.96136 129.60916 30139 ft 423 kts 277°
2026-05-04 23:00 35.96987 129.53719 30128 ft 425 kts 277°
2026-05-04 23:00 35.98570 129.46753 30139 ft 429 kts 294°
2026-05-04 23:01 36.01820 129.40530 30134 ft 434 kts 302°
2026-05-04 23:01 36.05276 129.34465 30125 ft 432 kts 302°
2026-05-04 23:02 36.08760 129.28395 30126 ft 432 kts 302°
2026-05-04 23:02 36.12210 129.22389 30132 ft 432 kts 303°
2026-05-04 23:03 36.15694 129.16324 30125 ft 433 kts 303°
2026-05-04 23:03 36.19179 129.10249 30126 ft 432 kts 303°
2026-05-04 23:04 36.22660 129.04169 30124 ft 434 kts 303°
2026-05-04 23:04 36.26125 128.98108 30125 ft 434 kts 303°
2026-05-04 23:05 36.29620 128.91983 30122 ft 436 kts 303°
2026-05-04 23:05 36.33102 128.85872 30123 ft 436 kts 303°
2026-05-04 23:06 36.36581 128.79752 30121 ft 436 kts 303°
2026-05-04 23:06 36.40080 128.73589 30122 ft 438 kts 303°
2026-05-04 23:07 36.43570 128.67429 30129 ft 437 kts 303°
2026-05-04 23:07 36.47074 128.61234 30125 ft 438 kts 303°
2026-05-04 23:08 36.50543 128.55089 30127 ft 437 kts 303°
2026-05-04 23:08 36.54042 128.48879 30130 ft 439 kts 304°
2026-05-04 23:09 36.57536 128.42668 30126 ft 440 kts 304°
2026-05-04 23:09 36.61042 128.36426 30126 ft 439 kts 303°
2026-05-04 23:10 36.64549 128.30209 30126 ft 440 kts 304°
2026-05-04 23:10 36.68083 128.24011 30128 ft 441 kts 304°
2026-05-04 23:11 36.71631 128.17776 30128 ft 441 kts 304°
2026-05-04 23:11 36.75168 128.11549 30127 ft 441 kts 304°
2026-05-04 23:12 36.78690 128.05339 30132 ft 441 kts 304°
2026-05-04 23:12 36.82231 127.99083 30131 ft 443 kts 304°
2026-05-04 23:13 36.85770 127.92815 30123 ft 437 kts 304°
2026-05-04 23:13 36.87517 127.89714 29728 ft 434 kts 304°
2026-05-04 23:13 36.89220 127.86690 29314 ft 428 kts 304°
2026-05-04 23:14 36.90923 127.83660 28943 ft 421 kts 304°
2026-05-04 23:14 36.92587 127.80698 28528 ft 416 kts 304°
2026-05-04 23:14 36.94243 127.77752 27871 ft 416 kts 304°
2026-05-04 23:14 36.95892 127.74822 27537 ft 409 kts 304°
2026-05-04 23:15 36.97511 127.71941 27118 ft 407 kts 304°
2026-05-04 23:15 36.99133 127.69051 26700 ft 406 kts 304°
2026-05-04 23:15 37.00746 127.66177 26267 ft 403 kts 304°
2026-05-04 23:15 37.02351 127.63313 25852 ft 399 kts 304°
2026-05-04 23:16 37.03926 127.60495 25400 ft 399 kts 304°
2026-05-04 23:16 37.05502 127.57675 24952 ft 395 kts 304°
2026-05-04 23:16 37.07070 127.54868 24515 ft 392 kts 304°
2026-05-04 23:16 37.08624 127.52081 24096 ft 388 kts 304°
2026-05-04 23:17 37.10166 127.49315 23681 ft 387 kts 304°
2026-05-04 23:17 37.11704 127.46553 23270 ft 386 kts 304°
2026-05-04 23:17 37.13212 127.43844 22867 ft 383 kts 304°
2026-05-04 23:17 37.14733 127.41107 22439 ft 382 kts 304°
2026-05-04 23:18 37.16254 127.38372 22016 ft 381 kts 304°
2026-05-04 23:18 37.17769 127.35641 21598 ft 379 kts 304°
2026-05-04 23:18 37.19252 127.32968 21193 ft 378 kts 304°
2026-05-04 23:18 37.20760 127.30248 20816 ft 377 kts 304°
2026-05-04 23:19 37.22253 127.27552 20382 ft 376 kts 304°
2026-05-04 23:19 37.23730 127.24882 19981 ft 374 kts 304°
2026-05-04 23:19 37.25222 127.22184 19568 ft 374 kts 304°
2026-05-04 23:19 37.26686 127.19535 19162 ft 374 kts 304°
2026-05-04 23:20 37.28167 127.16852 18753 ft 372 kts 303°
2026-05-04 23:20 37.29630 127.14199 18356 ft 372 kts 303°
2026-05-04 23:20 37.31101 127.11533 17957 ft 368 kts 303°
2026-05-04 23:20 37.32551 127.08898 17559 ft 367 kts 303°
2026-05-04 23:21 37.33988 127.06287 17159 ft 364 kts 303°
2026-05-04 23:21 37.35415 127.03692 16755 ft 361 kts 303°
2026-05-04 23:21 37.36841 127.01095 16364 ft 361 kts 304°
2026-05-04 23:21 37.38261 126.98508 15971 ft 359 kts 304°
2026-05-04 23:22 37.39663 126.95908 15581 ft 357 kts 300°
2026-05-04 23:22 37.40627 126.93053 15204 ft 354 kts 282°
2026-05-04 23:22 37.40887 126.90036 14807 ft 352 kts 266°
2026-05-04 23:22 37.40655 126.86977 14371 ft 350 kts 263°
2026-05-04 23:23 37.40395 126.83972 13913 ft 348 kts 262°
2026-05-04 23:23 37.40106 126.80949 13467 ft 346 kts 262°
2026-05-04 23:23 37.39810 126.77961 13035 ft 344 kts 262°
2026-05-04 23:23 37.39509 126.74990 12602 ft 342 kts 262°
2026-05-04 23:24 37.39205 126.72031 12162 ft 340 kts 262°
2026-05-04 23:24 37.38900 126.69094 11701 ft 339 kts 262°
2026-05-04 23:24 37.38599 126.66200 11225 ft 338 kts 262°
2026-05-04 23:24 37.38294 126.63284 10734 ft 337 kts 262°
2026-05-04 23:25 37.37986 126.60354 10234 ft 335 kts 262°
2026-05-04 23:25 37.37689 126.57526 10054 ft 319 kts 262°
2026-05-04 23:25 37.37405 126.54835 9959 ft 301 kts 262°
2026-05-04 23:25 37.37141 126.52334 9959 ft 282 kts 262°
2026-05-04 23:26 37.36886 126.49928 9969 ft 272 kts 262°
2026-05-04 23:26 37.36638 126.47573 9983 ft 273 kts 264°
2026-05-04 23:26 37.36792 126.45183 10042 ft 279 kts 289°
2026-05-04 23:26 37.37643 126.43057 9987 ft 276 kts 299°
2026-05-04 23:27 37.38613 126.40932 9795 ft 279 kts 298°
2026-05-04 23:27 37.39577 126.38828 9697 ft 276 kts 299°
2026-05-04 23:27 37.40537 126.36753 9357 ft 277 kts 299°
2026-05-04 23:27 37.41506 126.34667 9121 ft 275 kts 298°
2026-05-04 23:28 37.42468 126.32603 8867 ft 273 kts 298°
2026-05-04 23:28 37.43425 126.30548 8576 ft 272 kts 298°
2026-05-04 23:28 37.44379 126.28503 8330 ft 270 kts 298°
2026-05-04 23:28 37.45325 126.26475 8064 ft 269 kts 298°
2026-05-04 23:29 37.46274 126.24444 7812 ft 268 kts 301°
2026-05-04 23:29 37.47541 126.22732 7484 ft 272 kts 328°
2026-05-04 23:29 37.49302 126.21898 7234 ft 272 kts 346°
2026-05-04 23:29 37.51129 126.21390 6880 ft 268 kts 345°
2026-05-04 23:30 37.52950 126.20880 6356 ft 269 kts 346°
2026-05-04 23:30 37.54771 126.20434 5895 ft 268 kts 355°
2026-05-04 23:30 37.56610 126.20763 5343 ft 272 kts 24°
2026-05-04 23:30 37.58119 126.22166 4863 ft 270 kts 51°
2026-05-04 23:31 37.59234 126.24033 4416 ft 268 kts 53°
2026-05-04 23:31 37.60340 126.25906 3972 ft 267 kts 54°
2026-05-04 23:31 37.61320 126.27872 3512 ft 263 kts 72°
2026-05-04 23:31 37.61529 126.30102 3116 ft 253 kts 104°
2026-05-04 23:32 37.60847 126.32023 3014 ft 231 kts 128°
2026-05-04 23:32 37.59904 126.33607 2885 ft 223 kts 135°
2026-05-04 23:32 37.58730 126.34824 2633 ft 218 kts 147°
2026-05-04 23:32 37.57506 126.35921 2307 ft 211 kts 146°
2026-05-04 23:33 37.56355 126.36961 1993 ft 200 kts 147°
2026-05-04 23:33 37.55246 126.37950 1700 ft 190 kts 146°
2026-05-04 23:33 37.54212 126.38872 1464 ft 174 kts 146°
2026-05-04 23:33 37.53264 126.39714 1226 ft 159 kts 146°
2026-05-04 23:34 37.52393 126.40485 994 ft 150 kts 146°
2026-05-04 23:34 37.51540 126.41240 803 ft 148 kts 146°
2026-05-04 23:34 37.50691 126.41969 610 ft 151 kts 147°
2026-05-04 23:34 37.49836 126.42717 419 ft 149 kts 145°
2026-05-04 23:35 37.48999 126.43486 214 ft 148 kts 144°
2026-05-04 23:35 37.48153 126.44235 32 ft 144 kts 143°
2026-05-04 23:35 37.47545 126.44773 31 ft 67 kts 145°
2026-05-04 23:35 37.47235 126.45049 31 ft 53 kts 143°
2026-05-04 23:36 37.46941 126.45307 31 ft 49 kts 145°
2026-05-04 23:36 37.46686 126.45534 31 ft 37 kts 144°
2026-05-04 23:36 37.46549 126.45658 31 ft 12 kts 139°
2026-05-04 23:36 37.46486 126.45738 31 ft 12 kts 129°
2026-05-04 23:37 37.46428 126.45809 31 ft 11 kts 136°
2026-05-04 23:37 37.46379 126.45881 31 ft 10 kts 118°
2026-05-04 23:37 37.46352 126.45963 31 ft 10 kts 109°
2026-05-04 23:37 37.46327 126.46042 31 ft 9 kts 112°
2026-05-04 23:38 37.46306 126.46119 31 ft 8 kts 95°
2026-05-04 23:38 37.46321 126.46172 31 ft 6 kts 54°
2026-05-04 23:38 37.46351 126.46215 31 ft 6 kts 45°
2026-05-04 23:38 37.46384 126.46259 31 ft 7 kts 47°
2026-05-04 23:39 37.46431 126.46326 31 ft 11 kts 50°
2026-05-04 23:39 37.46471 126.46401 31 ft 8 kts 75°
2026-05-04 23:39 37.46463 126.46454 31 ft 5 kts 121°
2026-05-04 23:39 37.46439 126.46481 31 ft 5 kts 143°
2026-05-04 23:40 37.46417 126.46500 31 ft 0 kts 146°